| time (UTC) | temp F | wind direction | speed MPH | gust MPH | rain 1hr in | rain 24hr in | rain mn in | humidity % | barometer mb |
| 20260504050426 | 0 | 157 | 4.0 | 8.0 | 0.00 | 0.00 | 0.00 | 1005.6 | |
| 20260504045932 | 0 | 148 | 4.0 | 8.0 | 0.00 | 0.00 | 0.00 | 1005.6 | |
| 20260504045438 | 0 | 156 | 4.0 | 6.0 | 0.00 | 0.00 | 0.00 | 1005.5 | |
| 20260504044924 | 0 | 152 | 4.0 | 7.0 | 0.00 | 0.00 | 0.00 | 1005.5 | |
| 20260504044431 | 0 | 154 | 4.0 | 7.0 | 0.00 | 0.00 | 0.00 | 1005.5 | |
| 20260504043959 | 0 | 155 | 3.0 | 4.0 | 0.00 | 0.00 | 0.00 | 1005.6 | |
| 20260504043427 | 0 | 154 | 3.0 | 5.0 | 0.00 | 0.00 | 0.00 | 1005.6 | |
| 20260504042939 | 0 | 152 | 3.0 | 5.0 | 0.00 | 0.00 | 0.00 | 1005.5 | |
| 20260504042429 | 0 | 156 | 3.0 | 4.0 | 0.00 | 0.00 | 0.00 | 1005.5 | |
| 20260504041921 | 0 | 152 | 2.0 | 3.0 | 0.00 | 0.00 | 0.00 | 1005.5 | |
| 20260504041431 | 0 | 153 | 2.0 | 3.0 | 0.00 | 0.00 | 0.00 | 1005.5 | |
| 20260504040940 | 0 | 153 | 1.0 | 3.0 | 0.00 | 0.00 | 0.00 | 1005.5 | |
| 20260504040430 | 0 | 153 | 2.0 | 4.0 | 0.00 | 0.00 | 0.00 | 1005.5 | |
| 20260504035938 | 0 | 152 | 2.0 | 6.0 | 0.00 | 0.00 | 0.00 | 1005.6 | |
| 20260504035430 | 0 | 148 | 3.0 | 6.0 | 0.00 | 0.00 | 0.00 | 1005.5 | |
| 20260504034955 | 0 | 151 | 3.0 | 6.0 | 0.00 | 0.00 | 0.00 | 1005.5 | |
| 20260504034443 | 0 | 153 | 4.0 | 6.0 | 0.00 | 0.00 | 0.00 | 1005.5 | |
| 20260504033931 | 0 | 151 | 4.0 | 8.0 | 0.00 | 0.00 | 0.00 | 1005.5 | |
| 20260504033439 | 0 | 144 | 4.0 | 8.0 | 0.00 | 0.00 | 0.00 | 1005.5 | |
| 20260504032927 | 0 | 155 | 4.0 | 7.0 | 0.00 | 0.00 | 0.00 | 1005.6 | |
| 20260504032439 | 0 | 155 | 3.0 | 6.0 | 0.00 | 0.00 | 0.00 | 1005.6 | |
| 20260504031930 | 0 | 149 | 4.0 | 6.0 | 0.00 | 0.00 | 0.00 | 1005.6 | |
| 20260504031440 | 0 | 154 | 3.0 | 8.0 | 0.00 | 0.00 | 0.00 | 1005.6 | |
| 20260504030931 | 0 | 141 | 4.0 | 7.0 | 0.00 | 0.00 | 0.00 | 1005.5 | |
| 20260504030442 | 0 | 153 | 5.0 | 7.0 | 0.00 | 0.00 | 0.00 | 1005.5 | |
| 20260504025930 | 0 | 154 | 4.0 | 9.0 | 0.00 | 0.00 | 0.00 | 1005.5 | |
| 20260504025441 | 0 | 150 | 4.0 | 9.0 | 0.00 | 0.00 | 0.00 | 1005.5 | |
| 20260504024436 | 0 | 143 | 3.0 | 7.0 | 0.00 | 0.00 | 0.00 | 1005.3 | |
| 20260504023946 | 0 | 153 | 5.0 | 8.0 | 0.00 | 0.00 | 0.00 | 1005.3 | |
| 20260504023453 | 0 | 152 | 5.0 | 10.0 | 0.00 | 0.00 | 0.00 | 1005.2 | |
| 20260504022938 | 0 | 151 | 5.0 | 8.0 | 0.00 | 0.00 | 0.00 | 1005.2 | |
| 20260504022424 | 0 | 150 | 6.0 | 8.0 | 0.00 | 0.00 | 0.00 | 1005.2 | |
| 20260504021934 | 0 | 152 | 6.0 | 13.0 | 0.00 | 0.00 | 0.00 | 1005.1 | |
| 20260504021501 | 0 | 143 | 5.0 | 13.0 | 0.00 | 0.00 | 0.00 | 1004.9 | |
| 20260504020930 | 0 | 77 | 6.0 | 11.0 | 0.00 | 0.00 | 0.00 | 1004.9 | |
| 20260504020437 | 0 | 152 | 6.0 | 11.0 | 0.00 | 0.00 | 0.00 | 1004.8 | |
| 20260504015929 | 0 | 136 | 7.0 | 11.0 | 0.00 | 0.00 | 0.00 | 1004.8 | |
| 20260504015437 | 0 | 108 | 5.0 | 9.0 | 0.00 | 0.00 | 0.00 | 1004.7 | |
| 20260504014925 | 0 | 139 | 5.0 | 11.0 | 0.00 | 0.00 | 0.00 | 1004.7 | |
| 20260504014436 | 0 | 148 | 7.0 | 11.0 | 0.00 | 0.00 | 0.00 | 1004.6 | |
| 20260504013941 | 0 | 140 | 6.0 | 10.0 | 0.00 | 0.00 | 0.00 | 1004.6 | |
| 20260504013427 | 0 | 135 | 5.0 | 10.0 | 0.00 | 0.00 | 0.00 | 1004.6 | |
| 20260504012935 | 0 | 142 | 5.0 | 10.0 | 0.00 | 0.00 | 0.00 | 1004.6 | |
| 20260504012505 | 0 | 136 | 6.0 | 11.0 | 0.00 | 0.00 | 0.00 | 1004.6 | |
| 20260504011952 | 0 | 144 | 5.0 | 10.0 | 0.00 | 0.00 | 0.00 | 1004.6 | |
| 20260504011436 | 0 | 141 | 5.0 | 9.0 | 0.00 | 0.00 | 0.00 | 1004.6 | |
| 20260504010941 | 0 | 138 | 4.0 | 9.0 | 0.00 | 0.00 | 0.00 | 1004.5 | |
| 20260504010429 | 0 | 144 | 6.0 | 9.0 | 0.00 | 0.00 | 0.00 | 1004.6 | |
| 20260504005936 | 67 | 150 | 5.0 | 9.0 | 0.00 | 0.00 | 0.00 | 50 | 1004.6 |
| 20260504005426 | 67 | 146 | 6.0 | 9.0 | 0.00 | 0.00 | 0.00 | 50 | 1004.5 |
| 20260504004933 | 67 | 162 | 5.0 | 10.0 | 0.00 | 0.00 | 0.00 | 50 | 1004.6 |
| 20260504004423 | 67 | 145 | 6.0 | 11.0 | 0.00 | 0.00 | 0.00 | 49 | 1004.6 |
| 20260504003934 | 67 | 180 | 6.0 | 10.0 | 0.00 | 0.00 | 0.00 | 49 | 1004.6 |
| 20260504003441 | 68 | 154 | 6.0 | 9.0 | 0.00 | 0.00 | 0.00 | 48 | 1004.6 |
| 20260504002927 | 68 | 154 | 5.0 | 11.0 | 0.00 | 0.00 | 0.00 | 47 | 1004.7 |
| 20260504002430 | 68 | 165 | 7.0 | 11.0 | 0.00 | 0.00 | 0.00 | 47 | 1004.7 |
| 20260504001938 | 69 | 149 | 7.0 | 11.0 | 0.00 | 0.00 | 0.00 | 46 | 1004.7 |
| 20260504001426 | 69 | 173 | 7.0 | 17.0 | 0.00 | 0.00 | 0.00 | 45 | 1004.6 |
| 20260504000932 | 69 | 139 | 8.0 | 17.0 | 0.00 | 0.00 | 0.00 | 45 | 1004.6 |
| 20260504000437 | 69 | 171 | 7.0 | 15.0 | 0.00 | 0.00 | 0.00 | 44 | 1004.6 |
| 20260503235924 | 70 | 163 | 7.0 | 15.0 | 0.00 | 0.00 | 0.00 | 44 | 1004.6 |
| 20260503235435 | 70 | 155 | 8.0 | 13.0 | 0.00 | 0.00 | 0.00 | 43 | 1004.6 |
| 20260503234940 | 70 | 160 | 9.0 | 14.0 | 0.00 | 0.00 | 0.00 | 43 | 1004.6 |
| 20260503234427 | 70 | 169 | 7.0 | 14.0 | 0.00 | 0.00 | 0.00 | 43 | 1004.6 |
| 20260503233932 | 70 | 148 | 7.0 | 15.0 | 0.00 | 0.00 | 0.00 | 43 | 1004.6 |
| 20260503233441 | 70 | 153 | 7.0 | 14.0 | 0.00 | 0.00 | 0.00 | 44 | 1004.7 |
| 20260503233004 | 70 | 141 | 9.0 | 14.0 | 0.00 | 0.00 | 0.00 | 42 | 1004.6 |
| 20260503232432 | 70 | 166 | 6.0 | 12.0 | 0.00 | 0.00 | 0.00 | 43 | 1004.6 |
| 20260503231944 | 70 | 160 | 8.0 | 12.0 | 0.00 | 0.00 | 0.00 | 42 | 1004.6 |
| 20260503231431 | 70 | 150 | 7.0 | 14.0 | 0.00 | 0.00 | 0.00 | 42 | 1004.6 |
| 20260503230940 | 71 | 167 | 8.0 | 14.0 | 0.00 | 0.00 | 0.00 | 43 | 1004.6 |
| 20260503230506 | 71 | 146 | 7.0 | 14.0 | 0.00 | 0.00 | 0.00 | 43 | 1004.6 |
| 20260503225928 | 71 | 157 | 7.0 | 14.0 | 0.00 | 0.00 | 0.00 | 42 | 1004.7 |
| 20260503225457 | 70 | 148 | 8.0 | 14.0 | 0.00 | 0.00 | 0.00 | 41 | 1004.7 |
| 20260503224944 | 70 | 163 | 8.0 | 18.0 | 0.00 | 0.00 | 0.00 | 42 | 1004.8 |
| 20260503224432 | 71 | 122 | 9.0 | 18.0 | 0.00 | 0.00 | 0.00 | 42 | 1004.8 |
| 20260503223938 | 71 | 159 | 6.0 | 13.0 | 0.00 | 0.00 | 0.00 | 44 | 1004.8 |
| 20260503223429 | 70 | 134 | 9.0 | 14.0 | 0.00 | 0.00 | 0.00 | 42 | 1004.8 |
| 20260503222934 | 70 | 142 | 8.0 | 13.0 | 0.00 | 0.00 | 0.00 | 42 | 1004.8 |
| 20260503222440 | 70 | 201 | 8.0 | 13.0 | 0.00 | 0.00 | 0.00 | 43 | 1005.0 |
| 20260503221948 | 70 | 144 | 7.0 | 14.0 | 0.00 | 0.00 | 0.00 | 44 | 1005.0 |
| 20260503221433 | 70 | 145 | 8.0 | 18.0 | 0.00 | 0.00 | 0.00 | 44 | 1004.9 |
| 20260503220938 | 70 | 142 | 13.0 | 17.0 | 0.00 | 0.00 | 0.00 | 42 | 1005.0 |
| 20260503220430 | 70 | 178 | 9.0 | 20.0 | 0.00 | 0.00 | 0.00 | 42 | 1005.0 |
| 20260503215937 | 70 | 164 | 10.0 | 20.0 | 0.00 | 0.00 | 0.00 | 43 | 1005.0 |
| 20260503215506 | 70 | 165 | 9.0 | 19.0 | 0.00 | 0.00 | 0.00 | 42 | 1005.0 |
| 20260503214951 | 70 | 142 | 10.0 | 18.0 | 0.00 | 0.00 | 0.00 | 42 | 1004.9 |
| 20260503214456 | 70 | 161 | 10.0 | 19.0 | 0.00 | 0.00 | 0.00 | 43 | 1005.1 |
| 20260503213924 | 70 | 165 | 7.0 | 19.0 | 0.00 | 0.00 | 0.00 | 44 | 1005.2 |
| 20260503213433 | 70 | 148 | 8.0 | 15.0 | 0.00 | 0.00 | 0.00 | 43 | 1005.3 |
| 20260503212942 | 70 | 214 | 10.0 | 18.0 | 0.00 | 0.00 | 0.00 | 44 | 1005.3 |
| 20260503212430 | 69 | 153 | 12.0 | 20.0 | 0.00 | 0.00 | 0.00 | 44 | 1005.3 |
| 20260503211956 | 69 | 142 | 10.0 | 20.0 | 0.00 | 0.00 | 0.00 | 45 | 1005.3 |
| 20260503211443 | 70 | 152 | 8.0 | 17.0 | 0.00 | 0.00 | 0.00 | 45 | 1005.4 |
| 20260503210930 | 69 | 121 | 9.0 | 17.0 | 0.00 | 0.00 | 0.00 | 45 | 1005.5 |
| 20260503210458 | 69 | 196 | 9.0 | 17.0 | 0.00 | 0.00 | 0.00 | 45 | 1005.5 |
| 20260503205922 | 69 | 161 | 8.0 | 18.0 | 0.00 | 0.00 | 0.00 | 47 | 1005.6 |
| 20260503205433 | 69 | 177 | 11.0 | 18.0 | 0.00 | 0.00 | 0.00 | 44 | 1005.6 |
| 20260503204938 | 69 | 173 | 8.0 | 20.0 | 0.00 | 0.00 | 0.00 | 44 | 1005.7 |
| 20260503204426 | 69 | 139 | 12.0 | 20.0 | 0.00 | 0.00 | 0.00 | 43 | 1005.7 |
| 20260503203932 | 69 | 170 | 9.0 | 17.0 | 0.00 | 0.00 | 0.00 | 43 | 1005.8 |
| 20260503203423 | 69 | 183 | 7.0 | 15.0 | 0.00 | 0.00 | 0.00 | 44 | 1005.8 |
| 20260503202950 | 69 | 130 | 7.0 | 12.0 | 0.00 | 0.00 | 0.00 | 45 | 1006.0 |
| 20260503202435 | 68 | 152 | 7.0 | 17.0 | 0.00 | 0.00 | 0.00 | 46 | 1006.1 |
| 20260503201926 | 68 | 164 | 8.0 | 17.0 | 0.00 | 0.00 | 0.00 | 45 | 1006.2 |
| 20260503201450 | 68 | 184 | 8.0 | 15.0 | 0.00 | 0.00 | 0.00 | 44 | 1006.2 |
| 20260503200936 | 68 | 190 | 8.0 | 16.0 | 0.00 | 0.00 | 0.00 | 46 | 1006.3 |
| 20260503200428 | 68 | 228 | 7.0 | 16.0 | 0.00 | 0.00 | 0.00 | 45 | 1006.4 |
| 20260503195444 | 67 | 163 | 10.0 | 21.0 | 0.00 | 0.00 | 0.00 | 45 | 1006.5 |
| 20260503194944 | 67 | 147 | 11.0 | 19.0 | 0.00 | 0.00 | 0.00 | 45 | 1006.5 |
| 20260503194441 | 67 | 192 | 13.0 | 19.0 | 0.00 | 0.00 | 0.00 | 45 | 1006.6 |
| 20260503193939 | 67 | 146 | 10.0 | 17.0 | 0.00 | 0.00 | 0.00 | 45 | 1006.6 |
| 20260503193437 | 67 | 148 | 10.0 | 16.0 | 0.00 | 0.00 | 0.00 | 46 | 1006.8 |
| 20260503192935 | 67 | 147 | 11.0 | 19.0 | 0.00 | 0.00 | 0.00 | 45 | 1006.8 |
| 20260503192432 | 67 | 165 | 9.0 | 19.0 | 0.00 | 0.00 | 0.00 | 46 | 1006.9 |
| 20260503191930 | 66 | 187 | 9.0 | 20.0 | 0.00 | 0.00 | 0.00 | 47 | 1006.9 |
| 20260503191433 | 66 | 145 | 13.0 | 20.0 | 0.00 | 0.00 | 0.00 | 44 | 1007.0 |
| 20260503190930 | 67 | 157 | 10.0 | 21.0 | 0.00 | 0.00 | 0.00 | 46 | 1007.0 |
| 20260503190429 | 67 | 166 | 12.0 | 21.0 | 0.00 | 0.00 | 0.00 | 46 | 1007.0 |
| 20260503185947 | 67 | 223 | 9.0 | 21.0 | 0.00 | 0.00 | 0.00 | 48 | 1007.2 |
| 20260503185423 | 66 | 205 | 13.0 | 21.0 | 0.00 | 0.01 | 0.00 | 45 | 1007.1 |
| 20260503184925 | 65 | 92 | 8.0 | 22.0 | 0.00 | 0.01 | 0.00 | 50 | 1007.3 |
| 20260503184504 | 65 | 128 | 12.0 | 23.0 | 0.00 | 0.01 | 0.00 | 47 | 1007.4 |
| 20260503183940 | 65 | 150 | 15.0 | 23.0 | 0.00 | 0.01 | 0.00 | 48 | 1007.6 |
| 20260503183438 | 64 | 182 | 13.0 | 22.0 | 0.00 | 0.01 | 0.00 | 48 | 1007.6 |
| 20260503182935 | 64 | 161 | 13.0 | 27.0 | 0.00 | 0.01 | 0.00 | 48 | 1007.7 |
| 20260503182431 | 64 | 159 | 14.0 | 27.0 | 0.00 | 0.01 | 0.00 | 47 | 1007.7 |
| 20260503181927 | 64 | 136 | 14.0 | 21.0 | 0.00 | 0.01 | 0.00 | 48 | 1007.9 |
| 20260503181429 | 64 | 132 | 11.0 | 25.0 | 0.00 | 0.01 | 0.00 | 50 | 1008.0 |
| 20260503180929 | 64 | 178 | 15.0 | 29.0 | 0.00 | 0.01 | 0.00 | 47 | 1007.9 |
| 20260503180428 | 64 | 148 | 16.0 | 29.0 | 0.00 | 0.01 | 0.00 | 47 | 1008.2 |
| 20260503175927 | 64 | 132 | 13.0 | 30.0 | 0.00 | 0.01 | 0.00 | 50 | 1008.2 |
| 20260503175424 | 63 | 127 | 15.0 | 38.0 | 0.00 | 0.01 | 0.00 | 47 | 1008.3 |
| 20260503174923 | 63 | 140 | 19.0 | 38.0 | 0.00 | 0.01 | 0.00 | 46 | 1008.3 |
| 20260503174441 | 63 | 130 | 16.0 | 27.0 | 0.00 | 0.01 | 0.00 | 45 | 1008.4 |
| 20260503173937 | 63 | 142 | 11.0 | 26.0 | 0.00 | 0.01 | 0.00 | 50 | 1008.5 |
| 20260503173439 | 63 | 132 | 11.0 | 24.0 | 0.00 | 0.01 | 0.00 | 49 | 1008.5 |
| 20260503172939 | 62 | 125 | 9.0 | 23.0 | 0.00 | 0.01 | 0.00 | 50 | 1008.6 |
| 20260503172437 | 62 | 149 | 9.0 | 22.0 | 0.00 | 0.01 | 0.00 | 51 | 1008.6 |
| 20260503171936 | 62 | 133 | 11.0 | 23.0 | 0.00 | 0.01 | 0.00 | 53 | 1008.7 |
| 20260503171432 | 62 | 120 | 11.0 | 26.0 | 0.00 | 0.01 | 0.00 | 53 | 1008.7 |
| 20260503170932 | 62 | 130 | 15.0 | 24.0 | 0.00 | 0.01 | 0.00 | 49 | 1008.8 |
| 20260503170429 | 62 | 124 | 9.0 | 24.0 | 0.00 | 0.01 | 0.00 | 55 | 1009.0 |
| 20260503150927 | 48 | 84 | 1.0 | 5.0 | 0.00 | 0.02 | 0.00 | 80 | 1011.7 |
| 20260503150427 | 48 | 121 | 2.0 | 5.0 | 0.00 | 0.02 | 0.00 | 81 | 1011.9 |
| 20260503130924 | 46 | 107 | 4.0 | 7.0 | 0.00 | 0.02 | 0.00 | 82 | 1013.7 |
| 20260503130442 | 46 | 111 | 2.0 | 9.0 | 0.00 | 0.02 | 0.00 | 83 | 1013.7 |
| 20260503110451 | 0 | 51 | 6.0 | 13.0 | 0.00 | 0.03 | 0.00 | 1012.9 | |
| 20260503090437 | 0 | 85 | 7.0 | 11.0 | 0.00 | 0.03 | 0.00 | 1013.8 | |
| 20260503081454 | 0 | 108 | 5.0 | 9.0 | 0.00 | 0.03 | 0.00 | 1014.1 | |
| 20260503080929 | 0 | 71 | 4.0 | 9.0 | 0.00 | 0.03 | 0.00 | 1014.1 | |
| 20260503080426 | 0 | 110 | 4.0 | 9.0 | 0.00 | 0.03 | 0.00 | 1014.1 | |
| 20260503072936 | 0 | 115 | 3.0 | 8.0 | 0.00 | 0.03 | 0.00 | 1014.1 | |
| 20260503072435 | 0 | 110 | 4.0 | 8.0 | 0.00 | 0.03 | 0.00 | 1014.1 | |
| 20260503071933 | 0 | 107 | 3.0 | 10.0 | 0.00 | 0.03 | 0.00 | 1014.2 | |
| 20260503070938 | 0 | 105 | 3.0 | 9.0 | 0.00 | 0.03 | 0.00 | 1014.3 | |
| 20260503070439 | 0 | 118 | 5.0 | 9.0 | 0.00 | 0.03 | 0.00 | 1014.4 |